logo dgac
Miércoles 26 de Junio del 2019
Buscar por aerodromo o helipuerto
Ingrese nombre de aeródromo, localidad o designador OACI:

Aeródromo: Santo Domingo (PUB) (SCSN)

Ubicación: Santo Domingo, V Región, Chile (33º 39' 24'' S, 71º 36' 57'' W) Ver ubicación en el mapa

Pistas

Orientación Dimensión Pendiente Superficie Resistencia APCH THR RWY PAPI
05/23 800 x 18 ASPH 5.700 Kg No No No
Horas de operación HJ
Elevación 75 m / 246 ft
Otra Información Adm : DGAC
Uso : PUB
TEL MOVIL 984091772
TEL (56-2) 24363840
Ubicado a 1,5 km SE del balneario Rocas de Santo Domingo

Otra información ver AIP-Chile Volumen I AD 3.9-18.9-S y VAC
CCCM/FCCV Descargar
andera de Chile
Mapa de Santo Domingo (PUB) (SCSN)

Último METAR

METAR SCSN 252300Z VRB02KT CAVOK 06/01 Q1022

Último TAF

TAF SCSN 261027Z 2612/2624 13004KT 8000 SCT150 BKN200 TX15/2618Z TN05/2612Z TEMPO 2615/2620 CAVOK BECMG 2622/2700 20008KT

Últimas fotos cámaras

Imagen aerodromo Santo Domingo (PUB) (SCSN) N-Este tomada el 26-06-2019 06:59:53 Imagen aerodromo Santo Domingo (PUB) (SCSN) S-Oeste tomada el 26-06-2019 06:51:40

Último NOTAM

C1989/19 NOTAMN Q)SCEZ/QFUAU/IV/NBO/A/000/999/3339S07137W005 A)SCSN B)1906161200 C)1906302359 D)JUN 16/29-30 BTN 1200-2359 E)AVGAS 100/130 NO AVBL

LLegadas a Santo Domingo (PUB) (SCSN)

En vuelo

Vuelo Procedencia Hora Despegue Local Hora Arribo Local

Salidas de Santo Domingo (PUB) (SCSN)

En vuelo

Vuelo Hacia Hora Despegue Local Hora Arribo Local